Hourly Data Report for April 06, 2004

SHERBROOKE A
QUEBEC

45°26'00.000" N
71°41'00.000" W
241.40 m
7028124
71610
YSC

Download Data

Hourly Data (April 2004)
Hourly Data Report for April 6, 2004
TIME
LST
Temp Definition
°C
Dew Point Definition
°C
Rel Hum Definition
%
Precip. Amount Definition
mm

Wind Dir Definition
10's deg

Wind Spd Definition
km/h
Visibility Definition
km
Stn Press Definition
kPa
Hmdx Definition


Wind Chill Definition


Weather Definition


00:00 -5.1 -8.5 77   27 22 15.0 97.25   -12 Snow
01:00 -5.3 -10.1 69   28 24 15.0 97.27   -13 Snow
02:00 -5.8 -9.5 75   28 26 8.0 97.30   -14 Snow
03:00 -6.5 -9.6 79   28 22 5.6 97.34   -14 Snow
04:00 -7.0 -9.6 82   27 20 5.6 97.35   -14 Snow
05:00 -7.3 -10.5 78   27 17 15.0 97.43   -14 Snow
06:00 -7.3 -10.9 75   29 19 15.0 97.50   -14  
07:00 -7.4 -10.5 78   27 20 16.1 97.55   -15 Snow
08:00 -7.1 -11.4 71   28 24 24.1 97.56   -15 Snow Showers
09:00 -6.9 -12.0 67   28 30 24.1 97.59   -15 Snow Showers
10:00 -5.8 -11.7 63   28 20 24.1 97.60   -13 Snow Showers
11:00 -4.7 -11.6 58   29 20 24.1 97.59   -11 Snow Showers
12:00 -3.7 -10.3 60   29 20 24.1 97.61   -10 Mostly Cloudy
13:00 -3.6 -10.6 58   28 22 24.1 97.65   -10 Mostly Cloudy
14:00 -2.4 -9.4 59   29 22 24.1 97.63   -9 Snow Showers
15:00 -0.7 -8.6 55   30 20 24.1 97.61   -6 Mostly Cloudy
16:00 0.1 -8.0 54   27 11 24.1 97.59     Mostly Cloudy
17:00 1.1 -7.0 55     0 15.0 97.58      
18:00 0.9 -6.8 56   25 6 15.0 97.57      
19:00 -0.7 -6.4 65   19 6 15.0 97.60   -3  
20:00 0.2 -6.1 63   22 6 15.0 97.65      
21:00 -0.2 -5.3 68   21 6 15.0 97.63   -2  
22:00 0.1 -4.9 69   24 11 15.0 97.58      
23:00 0.1 -4.2 73   24 11 15.0 97.56      

Notes on Data Quality.

Legend

  • E = Estimated
  • M = Missing
  • NA = Not Available*
  • [empty] = Indicates an unobserved value
Date modified: